SCP
0 0 0 0 0 0 0 0 0 0 0 0 0 0 0 0 0 0 0 0 0 0 0 0 0 0 0 0 0 0 0 0 0 0 0 0 0 0 0 0 0 0 0
0 0 0 0 0 0 0 0 0 0 0 0 0 0 0 0 0 0 0 0 0 0 0 0 0 0 0 0 0 0 0 0 0 0 0 0 0 0 0 0 0 0 0
0 0 0 0 0 0 0 0 0 0 0 0 0 0 0 0 0 0 0 0 0 0 0 0 0 0 0 0 0 0 0 0 0 0 0 0 0 0 0 0 0 0 0
0 0 0 0 0 0 0 0 0 0 0 0 0 0 0 0 0 0 0 0 0 0 0 0 0 0 0 0 0 0 0 0 0 0 0 0 0 0 0 0 0 0 0
0 0 0 0 0 0 0 0 0 0 0 0 0 0 0 0 0 0 0 0 0 0 0 0 0 0 0 0 0 0 0 0 0 0 0 0 0 0 0 0 0 0 0
0 0 0 0 0 0 0 0 0 0 0 0 0 0 0 0 0 0 0 0 0 0 0 0 0 0 0 0 0 0 0 0 0 0 0 0 0 0 0 0 0 0 0
0 0 0 0 0 0 0 0 0 0 0 0 0 0 0 0 0 0 0 0 0 0 0 0 0 0 0 0 0 0 0 0 0 0 0 0 0 0 0 0 0 0 0
0 0 0 0 0 0 0 0 0 0 0 0 0 0 0 0 0 0 0 0 0 0 0 0 0 0 0 0 0 0 0 0 0 0 0 0 0 0 0 0 0 0 0
0 0 0 0 0 0 0 0 0 0 0 0 0 0 0 0 0 0 0 0 0 0 0 0 0 0 0 0 0 0 0 0 0 0 0 0 0 0 0 0 0 0 0
0 0 0 0 0 0 0 0 0 0 0 0 0 0 0 0 0 0 0 0 0 0 0 0 0 0 0 0 0 0 0 0 0 0 0 0 0 0 0 0 0 0 0
0 0 0 0 0 0 0 0 0 0 0 0 0 0 0 0 0 0 0 0 0 0 0 0 0 0 0 0 0 0 0 0 0 0 0 0 0 0 0 0 0 0 0
0 0 0 0 0 0 0 0 0 0 0 0 0 0 0 0 0 0 0 0 0 0 0 0 0 0 0 0 0 0 0 0 0 0 0 0 0 0 0 0 0 0 0
0 0 0 0 0 0 0 0 0 0 0 0 0 0 0 0 0 0 0 0 0 0 0 0 0 0 0 0 0 0 0 0 0 0 0 0 0 0 0 0 0 0 0
0 0 0 0 0 0 0 0 0 0 0 0 0 0 0 0 0 0 0 0 0 0 0 0 0 0 0 0 0 0 0 0 0 0 0 0 0 0 0 0 0 0 0
0 0 0 0 0 0 0 0 0 0 0 0 0 0 0 0 0 0 0 0 0 0 0 0 0 0 0 0 0 0 0 0 0 0 0 0 0 0 0 0 0 0 0
0 0 0 0 0 0 0 0 0 0 0 0 0 0 0 0 0 0 0 0 0 0 0 0 0 0 0 0 0 0 0 0 0 0 0 0 0 0 0 0 0 0 0
0 0 0 0 0 0 0 0 0 0 0 0 0 0 0 0 0 0 0 0 0 0 0 0 0 0 0 0 0 0 0 0 0 0 0 0 0 0 0 0 0 0 0
0 0 0 0 0 0 0 0 0 0 0 0 0 0 0 0 0 0 0 0 0 0 0 0 0 0 0 0 0 0 0 0 0 0 0 0 0 0 0 0 0 0 0
0 0 0 0 0 0 0 0 0 0 0 0 0 0 0 0 0 0 0 0 0 0 0 0 0 0 0 0 0 0 0 0 0 0 0 0 0 0 0 0 0 0 0
0 0 0 0 0 0 0 0 0 0 0 0 0 0 0 0 0 0 0 0 0 0 0 0 0 0 0 0 0 0 0 0 0 0 0 0 0 0 0 0 0 0 0
0 0 0 0 0 0 0 0 0 0 0 0 0 0 0 0 0 0 0 0 0 0 0 0 0 0 0 0 0 0 0 0 0 0 0 0 0 0 0 0 0 0 0
0 0 0 0 0 0 0 0 0 0 0 0 0 0 0 0 0 0 0 0 0 0 0 0 0 0 0 0 0 0 0 0 0 0 0 0 0 0 0 0 0 0 0
0 0 0 0 0 0 0 0 0 0 0 0 0 0 0 0 0 0 0 0 0 0 0 0 0 0 0 0 0 0 0 0 0 0 0 0 0 0 0 0 0 0 0
0 0 0 0 0 0 0 0 0 0 0 0 0 0 0 0 0 0 0 0 0 0 0 0 0 0 0 0 0 0 0 0 0 0 0 0 0 0 0 0 0 0 0
0 0 0 0 0 0 0 0 0 0 0 0 0 0 0 0 0 0 0 0 0 0 0 0 0 0 0 0 0 0 0 0 0 0 0 0 0 0 0 0 0 0 0
0 0 0 0 0 0 0 0 0 0 0 0 0 0 0 0 0 0 0 0 0 0 0 0 0 0 0 0 0 0 0 0 0 0 0 0 0 0 0 0 0 0 0
Wind_Speed
5 5 4 4 4 4 4 4 3 3 3 4 4 4 5 5 5 5 4 4 5 4 4 5 5 4 3 3 3 3 3 3 3 2 2 3 4 4 5 6 6 6 9
5 5 4 3 4 4 4 3 3 3 3 3 3 3 4 5 4 5 5 4 4 4 4 3 3 3 3 3 3 3 3 3 4 4 4 4 4 5 5 5 6 6 8
6 5 4 4 3 3 2 2 2 3 3 3 3 4 4 4 4 4 3 3 3 2 2 2 2 2 2 2 3 3 3 3 3 5 5 4 3 5 6 6 7 5 7
6 5 4 4 3 3 2 2 2 2 2 2 2 3 3 3 3 3 3 3 2 2 1 1 1 1 1 2 2 3 3 3 4 5 5 5 4 5 4 5 6 5 5
6 5 5 4 4 3 3 3 3 2 2 2 2 2 2 2 2 2 3 3 3 3 2 2 2 3 4 2 1 2 3 4 4 5 5 5 5 4 4 4 5 5 4
6 5 5 5 4 4 4 4 3 2 2 2 2 2 1 1 3 3 2 3 3 3 3 4 4 5 7 9 9 8 5 3 4 4 5 5 5 4 4 4 4 4 4
6 6 5 5 5 4 4 4 4 3 3 3 3 3 3 4 6 5 4 3 4 3 4 4 3 5 5 6 9 10 10 10 6 4 6 5 6 5 5 5 4 3 3
6 6 5 5 5 5 5 4 4 3 3 3 4 4 4 6 7 6 6 5 5 5 5 5 5 5 5 5 8 8 8 7 6 5 5 5 5 4 4 5 6 6 5
7 6 5 5 5 5 5 4 4 4 4 4 4 4 5 6 6 6 5 6 6 6 6 5 5 6 6 7 9 9 9 8 11 12 10 9 9 7 3 4 5 4 4
7 6 5 5 5 5 5 4 4 4 4 4 5 5 5 6 6 5 3 5 6 6 6 6 8 7 7 6 8 9 9 7 8 9 9 8 8 7 5 2 2 3 3
6 6 6 5 5 5 5 5 5 5 5 5 6 5 5 6 6 4 2 4 6 6 6 6 6 8 8 7 6 7 7 7 7 8 7 7 6 5 5 4 4 3 2
6 6 6 6 5 5 6 5 5 5 6 5 6 6 5 5 5 5 6 6 5 7 6 7 8 9 10 9 8 8 6 4 6 6 6 6 6 6 6 6 6 6 5
6 6 6 6 5 5 5 6 5 5 4 5 5 5 5 5 6 9 9 9 8 7 8 11 11 11 11 9 9 6 4 4 6 6 6 6 6 6 5 5 5 5 5
7 6 6 6 6 5 4 3 3 4 4 4 4 5 6 6 6 6 6 8 10 10 10 11 11 8 8 9 7 4 3 5 5 6 6 6 5 5 4 3 3 3 3
7 6 6 6 6 6 5 4 2 3 1 2 3 4 5 6 5 5 5 6 6 8 9 7 7 6 6 6 5 5 5 5 5 5 5 5 5 4 4 3 1 1 2
6 6 5 5 5 5 6 6 11 8 9 9 7 5 6 8 11 10 9 8 9 8 6 7 6 6 5 5 5 5 4 4 4 4 4 4 4 4 3 2 1 1 2
6 6 5 5 6 6 6 6 6 7 10 10 9 9 9 11 11 11 10 9 7 6 5 6 6 5 5 5 5 5 5 5 4 4 4 4 3 3 3 2 1 1 1
6 6 5 5 5 5 5 5 5 6 6 5 6 8 10 10 10 10 11 9 6 4 4 5 5 5 5 5 4 4 5 5 4 4 4 3 3 2 2 2 1 1 0
5 5 5 5 5 5 5 5 5 6 6 6 6 6 7 9 8 7 8 6 6 6 5 5 5 5 5 4 4 4 4 4 3 3 3 3 2 2 2 1 1 2 3
5 7 6 5 6 6 5 6 6 6 6 6 6 7 7 7 7 7 5 4 5 5 5 5 4 4 4 4 4 4 4 4 4 3 3 2 2 2 2 2 1 2 2
5 6 7 5 5 5 5 5 5 6 6 6 6 6 6 6 6 7 6 5 5 5 5 5 5 5 5 4 4 4 4 4 3 3 3 3 2 2 2 2 2 3 2
5 5 5 5 5 5 5 5 5 5 6 6 6 7 5 5 5 6 6 6 5 4 4 4 4 4 4 4 5 5 5 4 4 3 3 3 3 3 3 3 2 3 3
5 6 6 5 5 6 5 5 5 5 6 6 6 6 6 5 5 5 5 5 5 5 4 4 4 4 4 4 4 4 4 4 4 4 4 4 3 3 4 4 4 4 4
6 6 6 6 6 6 5 5 5 5 6 6 6 6 6 5 5 5 5 5 5 5 5 5 4 5 6 5 4 4 4 3 3 4 5 4 4 4 4 4 5 5 5
6 6 6 5 6 5 5 5 5 6 5 6 6 6 6 6 6 6 5 5 5 5 5 5 4 5 7 8 6 4 5 4 1 3 5 5 6 5 6 6 5 6 6
5 5 5 4 4 4 5 5 5 5 5 5 5 5 5 6 6 6 6 5 5 5 5 5 6 7 7 7 7 6 7 6 4 3 5 6 6 6 6 6 7 7 7
Wind_Direction
175 181 187 190 193 195 203 210 209 215 215 216 217 221 222 221 220 222 227 227 227 231 237 235 237 252 250 246 237 234 225 209 188 155 119 105 101 101 99 102 104 101 93
163 164 164 168 177 184 190 195 195 198 207 207 208 217 225 223 217 216 221 224 223 225 228 226 234 231 231 247 238 226 214 192 180 169 148 134 119 117 111 108 104 100 98
150 152 151 157 161 171 176 174 177 188 203 205 204 212 222 225 215 211 212 208 211 210 210 214 227 222 227 226 224 218 210 186 165 160 148 132 122 122 118 107 96 92 98
145 146 148 154 155 161 163 164 172 185 198 204 205 207 215 212 207 196 184 178 173 164 163 195 225 213 217 213 206 195 176 161 153 150 144 141 134 132 135 125 113 99 92
152 153 149 148 147 148 150 154 156 171 180 173 172 174 190 192 182 171 171 165 150 134 115 97 78 79 66 56 89 148 158 161 155 153 150 145 141 147 144 136 126 120 99
155 151 149 152 150 149 147 143 142 143 137 130 129 130 132 105 88 104 149 144 137 127 115 99 96 92 89 82 77 72 78 133 155 152 146 145 140 138 133 139 139 141 129
154 152 155 155 147 141 143 141 138 133 123 117 109 105 98 84 87 96 101 121 115 114 112 108 98 95 102 104 94 87 75 71 78 115 131 138 141 147 150 150 143 126 108
151 153 156 155 146 146 146 140 136 133 124 112 101 96 97 90 89 97 103 107 103 103 105 110 110 104 99 110 106 95 83 72 75 89 107 113 121 135 149 142 135 128 118
153 155 157 155 148 149 145 140 136 129 118 110 102 101 99 94 86 94 103 107 101 93 88 89 100 104 96 108 113 110 104 96 82 85 87 93 92 87 93 140 151 148 126
156 156 155 152 150 147 142 137 129 125 118 109 96 92 97 99 89 91 114 119 112 105 93 87 79 84 91 103 121 121 117 113 113 112 110 115 113 109 104 104 139 144 125
153 151 150 150 146 141 137 134 133 128 119 113 107 100 97 99 101 81 63 123 124 119 112 103 91 85 84 76 90 106 115 123 123 122 120 118 114 108 99 78 48 45 66
149 146 144 145 141 137 136 134 132 134 133 128 121 115 106 102 91 87 71 74 97 114 111 108 102 97 87 79 85 93 109 131 119 115 111 108 103 96 86 77 67 60 52
145 141 139 136 130 133 141 142 144 148 146 140 139 133 121 112 96 86 85 82 83 97 98 99 108 110 107 97 92 99 133 123 115 113 106 99 93 94 106 111 109 108 104
145 142 142 138 134 129 128 138 147 151 154 150 149 142 135 132 130 128 121 113 110 109 112 113 112 105 102 105 121 124 102 87 99 106 106 109 115 121 117 109 112 118 112
145 145 148 141 131 119 102 70 78 67 69 152 150 145 149 146 122 112 132 134 133 128 133 134 134 132 127 123 117 109 113 120 113 114 120 124 124 119 111 103 90 102 96
149 152 149 141 134 131 124 100 56 61 62 61 65 93 97 104 117 112 106 106 115 138 145 138 136 134 131 129 129 128 127 123 122 124 124 121 121 121 121 124 127 93 86
150 148 146 141 141 142 142 137 124 87 68 63 70 85 104 119 120 121 122 123 134 160 149 133 134 135 134 135 136 135 128 119 123 132 131 130 132 136 136 133 127 117 86
150 140 144 143 142 141 142 141 137 136 127 105 84 94 113 122 126 130 136 141 148 174 146 136 139 141 140 138 138 134 130 136 145 142 141 145 150 153 153 156 136 49 349
144 140 137 134 137 137 138 137 134 134 130 127 126 116 120 127 130 142 164 169 154 152 145 140 141 141 139 137 135 136 140 141 139 152 148 153 163 177 175 186 155 150 259
127 122 133 138 142 142 143 145 143 141 137 139 144 144 149 156 153 158 175 169 155 150 151 149 144 141 141 143 148 154 157 155 163 182 161 169 180 197 193 217 233 227 249
126 128 138 141 141 143 145 146 143 143 146 149 150 148 164 166 161 163 168 172 169 165 163 159 156 160 159 163 165 172 181 178 183 187 176 189 201 207 225 231 231 250 265
133 138 144 137 133 134 136 140 142 147 151 150 146 149 178 187 166 168 173 176 174 169 164 170 175 171 169 173 177 185 189 186 186 192 197 202 207 215 228 238 247 258 264
133 135 133 130 128 133 142 146 147 152 154 154 155 157 170 179 175 175 177 175 174 174 175 184 189 180 174 180 187 194 206 198 191 196 209 210 216 222 230 237 247 257 266
137 137 135 138 143 147 147 150 153 158 159 160 162 166 169 173 180 179 181 178 181 183 185 190 195 192 187 190 194 200 201 198 205 199 215 228 229 234 239 242 253 264 270
138 138 141 145 148 149 154 159 160 160 164 169 171 174 176 179 183 182 185 184 188 192 195 200 204 203 198 200 205 196 130 123 212 257 206 224 234 243 251 255 259 266 269
134 136 135 137 144 153 157 159 163 167 174 177 177 179 184 189 192 191 192 196 198 195 201 205 206 207 205 206 201 171 151 164 188 241 255 236 236 242 248 254 259 262 264